Wind_Speed
4 6 5 4 4 5 6 8 10 10 12 13 14 13 11 13 10 8 10 10 9 11 11 12 13 14 15 15 16 19 21 22 23 19 21 22 13 11 11 14 15 15 14
3 2 3 4 5 7 9 10 12 13 12 13 13 12 15 12 13 9 11 10 11 11 11 12 12 12 13 13 14 17 17 16 21 7 10 4 6 10 10 5 5 7 8
2 2 3 5 7 10 12 14 14 14 13 12 14 14 14 12 13 11 12 11 12 11 12 12 11 11 11 12 14 14 15 13 18 18 4 3 3 4 10 14 9 3 6
2 1 3 7 9 11 12 13 13 13 12 12 13 14 15 17 17 17 16 15 13 12 12 12 11 12 12 12 13 13 13 13 14 12 12 10 9 3 3 7 10 12 9
4 5 6 8 10 10 12 12 13 13 13 13 14 15 17 18 19 19 18 17 15 14 13 13 13 13 12 12 13 14 14 13 12 12 10 7 6 4 2 2 1 12 10
4 5 8 10 12 12 13 14 15 16 14 12 12 15 18 20 20 21 20 19 17 16 15 15 15 15 14 14 14 13 14 15 14 12 9 6 3 3 2 2 1 3 7
3 4 7 10 12 15 17 16 18 20 20 15 15 16 18 20 21 22 22 21 20 19 17 15 16 17 16 15 15 15 14 14 15 15 13 9 7 7 5 3 2 1 2
2 2 5 9 12 14 16 19 20 20 20 20 19 18 20 22 23 23 22 22 22 21 19 18 17 17 17 17 16 16 15 14 15 16 14 13 10 9 8 5 3 1 1
1 3 7 10 13 15 16 18 20 21 20 20 21 20 20 21 22 21 20 21 22 22 21 19 19 18 18 17 17 18 18 16 16 16 16 15 13 11 9 8 7 4 2
2 4 6 11 13 14 15 17 19 21 21 22 21 21 21 20 21 22 22 21 21 21 21 21 21 21 20 18 17 18 18 17 17 17 17 17 15 12 11 9 8 6 3
1 2 3 11 13 14 16 19 22 22 22 23 23 22 21 21 21 23 22 20 19 20 21 21 21 21 21 20 19 19 18 19 19 17 16 16 15 14 12 10 9 8 6
1 2 4 10 15 17 18 21 22 22 22 23 23 22 21 21 22 22 21 19 19 19 20 20 21 23 23 21 21 20 19 19 19 19 17 17 14 14 13 11 10 8 7
0 1 7 11 14 16 18 20 21 21 22 22 22 22 22 23 23 23 22 20 21 21 21 21 22 22 23 23 22 21 20 20 20 19 18 17 16 16 14 12 11 9 8
1 2 5 11 13 13 16 18 19 19 20 20 20 21 22 23 23 22 21 21 22 23 23 22 22 22 23 23 23 23 22 21 21 20 20 19 17 17 16 14 13 12 11
1 3 4 8 13 15 18 19 19 20 19 19 19 20 22 23 25 26 25 23 22 22 22 22 21 21 21 22 22 22 23 22 23 22 21 20 18 17 16 16 15 14 13
3 5 5 7 10 13 15 16 18 19 18 17 18 19 22 23 24 26 26 26 26 25 25 23 22 23 21 20 20 21 24 24 24 24 22 20 19 18 17 16 15 16 16
5 6 6 6 11 15 16 17 18 18 17 17 18 21 23 24 25 25 26 27 28 28 27 26 24 24 22 19 18 17 21 25 25 25 23 22 21 19 19 17 16 16 16
6 5 9 12 11 11 13 15 15 16 17 17 20 22 24 25 25 26 26 27 27 27 27 27 26 25 23 20 18 16 18 23 26 26 24 23 23 21 20 20 20 19 19
5 7 11 9 9 9 11 13 15 16 16 19 21 23 23 25 26 27 28 27 28 29 29 27 27 26 26 21 18 15 17 22 25 26 26 25 24 22 21 21 23 21 22
7 11 11 8 7 7 9 12 14 15 16 17 19 20 20 21 23 23 25 26 26 28 29 30 27 25 25 22 19 16 18 21 23 24 25 25 26 24 23 24 25 23 24
10 10 10 10 8 7 11 14 15 17 18 18 19 20 21 21 22 23 24 26 27 28 30 30 30 27 24 24 20 18 18 22 24 25 26 26 24 24 23 24 28 28 24
12 14 10 11 12 11 12 15 16 18 20 21 22 23 24 23 22 22 25 26 25 26 30 32 34 32 28 25 25 21 18 19 23 26 28 27 24 21 22 25 25 23 18
18 10 9 12 14 18 15 14 17 19 20 22 24 25 26 26 24 23 25 26 26 24 25 24 24 31 35 33 28 25 21 20 22 26 28 29 25 22 20 22 25 22 22
12 12 13 15 20 22 19 17 18 20 19 21 24 26 26 26 26 25 24 24 24 25 21 20 20 24 26 29 31 29 27 24 23 23 24 26 24 25 23 21 24 26 26
17 16 16 19 22 25 25 25 23 21 21 23 26 28 26 26 28 28 26 22 24 21 22 23 23 24 26 28 29 31 29 29 30 26 24 23 18 19 22 22 25 27 28
20 20 22 22 27 28 30 32 28 23 24 27 26 26 24 27 28 29 32 28 24 19 20 24 23 25 25 27 29 31 30 28 27 25 20 17 18 20 19 20 22 26 25
Wind_Direction
67 139 168 191 227 270 287 301 306 309 309 313 324 328 329 337 335 335 341 340 334 340 335 339 348 357 5 2 356 351 345 342 343 331 323 326 327 291 293 288 269 242 229
87 137 207 247 278 293 300 306 305 305 307 307 314 312 318 322 320 324 337 335 331 332 332 332 339 347 354 1 357 355 346 328 347 315 304 328 337 11 357 331 332 213 217
192 257 260 285 302 309 318 314 314 313 309 305 307 308 309 308 312 316 324 326 328 330 327 322 322 333 338 342 346 352 355 325 331 342 277 335 321 322 24 22 18 101 162
185 40 351 341 339 333 326 320 320 319 313 309 306 301 297 297 305 312 315 317 319 316 320 322 315 322 328 329 333 338 338 345 327 351 345 289 272 319 343 10 39 76 94
48 20 359 349 348 351 349 343 333 327 322 311 301 296 293 296 304 307 307 309 310 306 305 310 311 313 316 321 320 323 329 338 338 345 338 345 314 274 286 293 11 57 79
34 29 40 38 33 27 20 15 4 358 347 331 314 302 298 303 304 310 307 307 305 305 302 301 306 309 310 313 315 317 319 325 329 334 342 352 336 326 321 320 348 97 67
102 43 31 28 31 25 18 16 8 360 355 344 336 328 318 309 303 305 305 304 305 302 300 297 299 302 304 309 311 311 313 318 321 324 328 328 331 321 304 277 250 298 142
140 71 47 36 26 19 16 6 4 4 4 359 353 344 335 325 315 307 306 302 299 302 300 294 292 294 298 303 306 305 306 307 309 313 317 317 318 327 331 311 300 269 197
145 53 39 36 23 14 12 9 0 358 358 354 348 346 342 335 333 326 311 307 306 305 302 296 290 290 289 293 298 297 300 301 302 305 308 310 312 313 315 320 316 312 256
82 60 50 27 19 14 8 4 1 357 357 356 353 347 344 343 342 339 330 317 313 308 302 299 295 293 290 288 288 288 291 291 294 297 299 300 301 300 302 300 295 290 279
85 88 54 14 12 9 5 1 359 358 358 356 352 350 349 347 341 339 333 329 321 319 308 301 297 293 289 286 284 283 285 284 287 286 283 284 288 291 290 287 283 275 260
139 112 7 358 5 3 0 357 355 355 355 352 350 351 350 349 347 345 344 339 331 325 319 312 300 291 287 284 277 278 279 277 278 283 282 281 277 276 279 279 277 270 257
65 8 356 355 356 354 352 351 352 352 352 352 351 351 352 350 348 346 343 339 334 327 320 313 306 299 291 282 275 274 277 276 276 278 276 277 276 272 270 268 264 257 244
135 350 344 343 340 342 346 349 349 351 350 350 352 356 357 355 354 353 349 344 340 335 329 323 313 306 300 289 279 274 273 275 273 274 273 271 267 268 268 259 253 247 239
157 328 304 303 329 342 347 346 347 351 352 355 358 359 359 0 360 360 359 355 349 343 339 332 326 315 304 296 288 276 272 276 274 273 272 270 269 270 269 266 255 239 234
283 298 291 304 322 331 339 344 347 350 351 354 355 354 355 357 360 0 358 356 355 353 347 342 335 327 317 311 301 287 276 275 269 266 266 265 261 258 258 256 256 255 242
259 275 282 299 331 340 339 340 342 345 348 350 352 352 351 351 352 352 352 354 354 351 349 348 341 332 328 320 309 293 276 274 271 267 264 262 258 255 254 248 246 247 246
253 290 322 318 313 316 326 331 341 345 346 350 351 352 348 344 343 345 345 344 346 346 347 344 343 335 332 327 314 302 282 273 270 267 265 260 259 254 249 247 246 241 242
262 275 295 280 292 318 329 333 341 346 348 349 349 349 349 344 342 341 341 341 338 338 339 341 340 336 333 332 319 303 289 280 275 271 265 258 257 257 249 244 244 245 243
263 278 266 263 286 315 328 330 333 337 339 340 340 342 345 343 339 338 337 337 337 333 334 332 335 336 332 336 325 308 290 284 280 276 270 264 259 258 248 234 240 239 244
272 282 254 269 284 306 316 320 325 329 330 326 327 334 340 338 339 334 335 336 335 334 334 333 332 332 334 334 332 319 295 282 281 277 273 271 266 253 248 234 236 237 249
306 305 263 277 290 301 308 308 312 327 325 325 324 326 329 328 326 326 328 329 330 329 331 332 330 329 331 329 327 322 307 291 278 271 272 271 269 265 251 237 235 237 227
308 302 277 284 289 303 306 295 309 318 314 315 319 321 321 320 319 317 319 322 323 322 319 317 315 318 324 323 326 322 313 300 282 279 277 270 266 265 257 244 232 226 216
305 304 302 296 299 308 314 301 305 310 301 301 305 308 310 312 313 311 310 312 312 312 307 305 304 307 310 313 321 323 318 308 298 286 277 266 258 254 253 250 233 220 212
301 300 295 297 299 307 309 307 307 308 299 300 299 304 307 308 309 307 304 300 305 300 294 295 298 302 305 304 308 307 303 300 295 294 284 261 246 241 235 241 232 216 212
304 303 302 303 306 309 309 309 312 315 305 299 298 300 299 302 301 300 303 303 299 295 290 291 291 295 293 302 307 307 303 298 296 278 261 255 248 244 241 227 217 210 208
Height
811 812 814 815 815 814 814 813 813 813 811 810 809 807 805 803 802 800 798 795 794 792 789 787 785 783 780 777 774 770 765 760 756 751 743 735 732 731 731 730 727 728 728
814 815 815 816 815 814 814 812 812 811 810 809 808 806 804 801 800 799 796 795 793 790 788 786 784 782 779 777 774 770 766 761 757 754 748 742 735 731 731 729 727 726 726
818 817 816 815 814 813 812 811 811 809 808 808 806 805 803 801 799 797 795 793 791 788 786 784 783 781 778 775 772 770 767 762 756 753 753 749 743 736 731 731 731 728 728
818 816 815 814 813 813 812 810 809 808 806 805 804 803 801 799 796 794 792 791 789 787 785 783 781 779 777 774 772 769 766 763 758 753 751 749 748 744 737 735 735 734 733
817 817 816 814 813 811 810 809 807 805 804 802 801 800 798 796 793 791 789 788 786 785 783 781 779 777 775 773 770 768 765 763 759 756 751 747 746 745 744 740 738 737 737
818 817 815 813 812 812 810 808 806 804 802 800 799 797 795 793 790 787 785 783 782 781 780 779 777 775 773 771 769 767 764 762 760 757 753 750 747 745 744 742 739 739 741
819 817 815 813 812 812 810 809 807 804 801 799 797 795 792 790 787 784 781 779 777 776 775 774 773 772 771 769 768 766 763 761 759 757 754 751 748 746 743 742 741 740 740
817 815 814 814 813 812 810 808 806 803 800 798 795 793 790 786 783 780 778 775 773 771 771 769 768 767 767 766 765 763 762 760 758 756 754 752 749 747 745 742 741 739 740
815 814 815 814 813 811 810 808 805 802 799 796 792 789 786 783 779 776 774 772 770 768 767 766 764 763 761 761 761 760 758 757 755 753 751 749 748 746 744 743 742 739 738
813 814 815 814 813 811 810 808 805 801 797 794 790 787 783 780 776 773 770 767 765 764 763 761 760 759 758 757 756 755 755 754 752 751 749 747 745 742 741 739 739 739 739
814 815 815 814 813 811 809 806 802 799 795 791 788 784 781 777 774 771 767 764 762 760 757 756 755 753 753 753 752 751 751 750 748 747 745 744 743 741 739 738 737 736 737
814 814 814 813 811 809 806 803 800 797 794 790 786 783 779 775 772 768 765 761 758 756 753 751 749 748 747 747 746 745 745 745 744 743 742 741 740 739 738 737 736 735 735
813 814 813 811 810 808 805 803 799 795 792 788 784 780 777 773 769 765 762 759 755 752 750 747 745 743 741 741 741 740 740 740 740 739 739 737 737 736 735 735 734 733 732
813 813 812 810 808 807 804 801 797 794 790 786 782 779 775 771 767 764 760 756 753 749 746 743 741 738 737 735 735 735 735 735 735 735 735 734 733 732 733 732 731 731 731
810 811 811 808 806 803 801 798 795 791 788 784 780 777 773 770 766 761 757 754 751 747 743 740 737 734 732 730 730 730 730 730 729 730 730 730 731 730 730 730 729 729 729
809 809 808 806 804 802 799 796 793 790 787 784 780 777 773 769 766 761 757 753 749 745 741 737 734 730 728 726 724 724 724 724 723 722 723 724 724 724 725 726 727 727 726
807 806 805 803 800 798 796 793 791 788 785 782 780 776 772 767 764 760 756 751 747 742 739 735 731 727 724 722 720 719 718 717 716 716 717 717 718 719 720 721 723 723 722
803 801 800 799 799 798 795 792 789 786 783 780 778 774 770 766 762 758 755 750 746 742 738 733 729 725 722 719 717 715 713 711 709 710 712 712 712 712 714 715 716 717 719
798 797 797 796 795 793 792 790 787 784 780 777 774 772 769 765 761 756 752 748 744 739 735 732 727 723 718 716 713 710 708 705 704 705 705 705 705 707 709 710 711 712 712
795 794 794 793 792 790 789 787 785 782 778 776 773 770 766 763 759 755 750 746 742 737 733 728 725 721 716 713 709 707 704 701 699 698 698 699 699 700 702 703 704 705 706
792 791 790 788 787 787 786 784 782 779 776 773 770 767 763 759 756 752 748 743 739 734 730 725 720 717 714 710 706 704 701 698 695 693 692 692 693 694 695 696 696 697 701
788 787 786 786 785 784 782 779 777 775 772 769 765 762 759 756 753 749 744 740 736 732 726 721 715 711 709 707 703 700 697 695 691 687 686 686 687 688 688 690 691 694 696
786 784 784 783 782 781 780 777 774 771 768 764 761 757 754 751 748 745 740 736 732 728 724 719 714 708 703 700 699 695 692 689 687 684 681 680 681 681 682 683 684 687 689
784 783 782 781 778 776 775 772 769 766 763 760 756 752 749 745 741 739 736 732 729 724 720 716 711 705 700 696 692 690 687 684 681 677 675 674 674 676 676 678 678 679 682
782 780 779 777 774 771 768 766 764 761 758 754 750 746 742 739 735 731 728 725 721 720 716 712 708 703 697 692 691 687 682 679 677 674 670 668 669 670 670 671 672 672 675
779 777 775 772 768 765 761 758 756 755 751 746 742 739 736 732 728 724 718 717 714 711 709 705 702 697 693 690 686 680 676 673 671 668 665 664 663 663 664 664 665 666 668